GW0416 Weather Reports


time (UTC)temp
F
wind
direction
speed
knots
gust
knots
rain 1hr
in
rain 24hr
in
rain mn
in
humidity
%
barometer
mb
20221208003013 19 14 4.3 6.1 0.00 0.00 0.00 85 1014.0
20221208001513 17 33 2.6 4.3 0.00 0.00 0.00 85 1014.1
20221208000014 15 33 3.5 8.7 0.00 0.00 0.00 86 1014.0
20221207234517 19 288 1.7 5.2 0.00 0.00 0.00 81 1013.8
20221207233011 20 250 3.5 7.0 0.00 0.00 0.00 79 1013.8
20221207231513 22 272 5.2 7.0 0.00 0.00 0.00 78 1013.6
20221207230013 23 259 4.3 7.0 0.00 0.00 0.00 78 1013.6
20221207224511 23 269 6.1 7.8 0.00 0.00 0.00 79 1013.5
20221207223011 23 271 5.2 7.8 0.00 0.00 0.00 79 1013.5
20221207221519 23 285 6.1 7.8 0.00 0.00 0.00 79 1013.3
20221207220010 22 259 7.0 10.4 0.00 0.00 0.00 79 1012.9
20221207214522 21 262 3.5 7.8 0.00 0.00 0.00 79 1013.0
20221207213013 22 202 7.0 10.4 0.00 0.00 0.00 77 1013.0
20221207211511 24 264 8.7 12.2 0.00 0.00 0.00 79 1012.7
20221207210010 22 263 5.2 8.7 0.00 0.00 0.00 79 1012.5
20221207204510 20 266 5.2 9.6 0.00 0.00 0.00 81 1012.8
20221207203013 18 267 6.1 9.6 0.00 0.00 0.00 80 1012.9
20221207201512 19 247 7.0 13.0 0.00 0.00 0.00 81 1013.0
20221207200010 18 246 7.8 14.8 0.00 0.00 0.00 81 1012.9
20221207194513 19 286 11.3 17.4 0.00 0.00 0.00 81 1012.2
20221207193013 17 287 12.2 18.2 0.00 0.00 0.00 81 1012.2
20221207191520 19 259 13.0 19.1 0.00 0.00 0.00 81 1012.4
20221207190015 19 274 12.2 19.1 0.00 0.00 0.00 82 1012.2
20221207184517 16 297 9.6 13.0 0.00 0.00 0.00 84 1012.6
20221207183010 15 247 10.4 14.8 0.00 0.00 0.00 83 1012.6
20221207181513 16 269 13.0 16.5 0.00 0.00 0.00 85 1012.7
20221207180012 15 270 11.3 16.5 0.00 0.00 0.00 86 1012.7
20221207174512 11 280 8.7 13.9 0.00 0.00 0.00 86 1013.0
20221207173011 9 238 0.0 3.5 0.00 0.00 0.00 86 1013.0
20221207171510 5 217 2.6 10.4 0.00 0.00 0.00 85 1012.8
20221207170010 3 252 2.6 7.8 0.00 0.00 0.00 85 1012.6
20221207164518 1 204 6.1 12.2 0.00 0.00 0.00 84 1012.3
20221207163012 5 218 7.8 13.9 0.00 0.00 0.00 86 1012.2
20221207161515 1 290 6.1 12.2 0.00 0.00 0.00 85 1011.6
20221207160016 -1 284 1.7 5.2 0.00 0.00 0.00 85 1011.6
20221207154513 -5 198 2.6 7.8 0.00 0.00 0.00 82 1011.6
20221207153024 -6 161 4.3 7.0 0.00 0.00 0.00 83 1011.8
20221207151512 -6 175 6.1 8.7 0.00 0.00 0.00 82 1011.7
20221207150015 -5 255 6.1 9.6 0.00 0.00 0.00 83 1011.2
20221207144512 -6 248 7.8 11.3 0.00 0.00 0.00 82 1011.3
20221207143012 -9 240 7.8 12.2 0.00 0.00 0.00 82 1010.9
20221207141512 -8 225 5.2 9.6 0.00 0.00 0.00 81 1011.1
20221207140013 -8 234 7.8 9.6 0.00 0.00 0.00 82 1010.8
20221207134530 -9 249 6.1 11.3 0.00 0.00 0.00 82 1011.2
20221207133012 -8 220 8.7 12.2 0.00 0.00 0.00 82 1011.3
20221207131512 -9 219 7.0 8.7 0.00 0.00 0.00 82 1011.1
20221207130011 -9 210 7.0 9.6 0.00 0.00 0.00 82 1010.8
20221207124512 -9 209 7.0 12.2 0.00 0.00 0.00 82 1010.9
20221207123011 -9 217 11.3 14.8 0.00 0.00 0.00 82 1010.8
20221207121513 -9 217 9.6 12.2 0.00 0.00 0.00 82 1010.9
20221207120012 -9 225 7.0 10.4 0.00 0.00 0.00 82 1011.1
20221207114522 -9 223 7.8 12.2 0.00 0.00 0.00 81 1010.9
20221207113012 -10 218 10.4 12.2 0.00 0.00 0.00 82 1011.1
20221207111511 -10 212 7.0 9.6 0.00 0.00 0.00 81 1011.5
20221207110012 -10 196 6.1 7.8 0.00 0.00 0.00 81 1011.7
20221207104511 -10 177 6.1 8.7 0.00 0.00 0.00 81 1011.7
20221207103012 -10 182 8.7 11.3 0.00 0.00 0.00 81 1011.8
20221207101512 -10 180 5.2 10.4 0.00 0.00 0.00 81 1012.1
20221207100015 -10 178 7.0 10.4 0.00 0.00 0.00 82 1012.5
20221207094531 -10 202 5.2 7.0 0.00 0.00 0.00 81 1012.7
20221207093011 -10 190 6.1 7.8 0.00 0.00 0.00 81 1012.7
20221207091513 -10 196 7.0 9.6 0.00 0.00 0.00 81 1012.9
20221207090011 -9 194 7.8 8.7 0.00 0.00 0.00 81 1012.9
20221207084514 -9 211 7.0 10.4 0.00 0.00 0.00 81 1013.0
20221207083014 -9 185 6.1 9.6 0.00 0.00 0.00 82 1013.0
20221207081512 -8 189 6.1 8.7 0.00 0.00 0.00 82 1013.3
20221207080011 -7 169 7.0 10.4 0.00 0.00 0.00 82 1013.4
20221207074513 -7 184 5.2 7.0 0.00 0.00 0.00 82 1013.6
20221207073011 -9 174 3.5 6.1 0.00 0.00 0.00 82 1013.7
20221207071511 -9 135 1.7 4.3 0.00 0.00 0.00 82 1013.6
20221207070013 -10 131 0.9 2.6 0.00 0.00 0.00 81 1013.7
20221207064512 -10 131 0.0 1.7 0.00 0.00 0.00 81 1014.0
20221207063012 -10 131 0.9 3.5 0.00 0.00 0.00 81 1014.1
20221207061510 -10 131 2.6 4.3 0.00 0.00 0.00 81 1014.2
20221207060015 -10 124 3.5 5.2 0.00 0.00 0.00 81 1014.3
20221207054511 -9 102 1.7 5.2 0.00 0.00 0.00 81 1014.4
20221207053018 -9 89 2.6 4.3 0.00 0.00 0.00 81 1014.6
20221207051513 -8 86 2.6 5.2 0.00 0.00 0.00 82 1014.7
20221207050010 -8 94 2.6 4.3 0.00 0.00 0.00 82 1014.6
20221207044512 -8 84 3.5 7.0 0.00 0.00 0.00 82 1014.6
20221207043011 -9 68 7.0 9.6 0.00 0.00 0.00 82 1014.6
20221207041511 -8 67 8.7 10.4 0.00 0.00 0.00 82 1014.6
20221207040010 -8 61 8.7 10.4 0.00 0.00 0.00 82 1014.5
20221207034516 -9 72 9.6 10.4 0.00 0.00 0.00 82 1014.3
20221207033011 -9 82 8.7 11.3 0.00 0.00 0.00 81 1014.3
20221207031511 -9 76 7.8 11.3 0.00 0.00 0.00 81 1014.3
20221207030011 -9 77 7.8 11.3 0.00 0.00 0.00 82 1014.5
20221207024510 -9 78 7.8 10.4 0.00 0.00 0.00 82 1014.5
20221207023010 -9 65 8.7 12.2 0.00 0.00 0.00 81 1014.3
20221207021512 -9 67 11.3 13.9 0.00 0.00 0.00 81 1014.0
20221207020011 -9 63 13.0 17.4 0.00 0.00 0.00 81 1014.1
20221207014513 -9 53 13.9 16.5 0.00 0.00 0.00 81 1014.0
20221207013013 -9 76 13.0 14.8 0.00 0.00 0.00 81 1013.6
20221207011513 -9 72 12.2 13.9 0.00 0.00 0.00 81 1013.5
20221207010015 -9 76 12.2 15.6 0.00 0.00 0.00 81 1013.5
20221207004514 -8 63 13.9 16.5 0.00 0.00 0.00 81 1013.5